Location: Melita
(38.4566°N, 122.6369°W)
Time: 19:30:49
(UTC+00:00)

Lacrosse 5 - Pass Details

Date: 24 January 2020
Orbit: 717 x 722 km, 57.0° (Epoch: 06 February)

Event Time Altitude Azimuth Distance (km) Brightness Sun altitude
Exits shadow 13:28:55 21° 209° (SSW) 1,579 3.4 -22.1°
Maximum altitude 13:32:17 70° 130° (SE) 763 2.1 -21.5°
Drops below altitude 10° 13:37:20 10° 47° (NE) 2,205 4.9 -20.5°
Sets 13:39:43 0° 45° (NE) 3,127 5.7 -20.0°
